TimeCDT,TemperatureF,Dew PointF,Humidity,Sea Level PressureIn,VisibilityMPH,Wind Direction,Wind SpeedMPH,Gust SpeedMPH,PrecipitationIn,Events,Conditions,WindDirDegrees,DateUTC
12:15 AM,73.4,69.8,88,29.72,10.0,SW,4.6,-,N/A,,Clear,220,2013-06-29 05:15:00
12:35 AM,73.4,69.8,88,29.72,10.0,Calm,Calm,-,N/A,,Clear,0,2013-06-29 05:35:00
12:55 AM,73.4,69.8,88,29.73,10.0,Calm,Calm,-,N/A,,Clear,0,2013-06-29 05:55:00
1:15 AM,71.6,69.8,94,29.73,10.0,Calm,Calm,-,N/A,,Clear,0,2013-06-29 06:15:00
1:35 AM,71.6,69.8,94,29.73,10.0,Calm,Calm,-,N/A,,Mostly Cloudy,0,2013-06-29 06:35:00
1:55 AM,73.4,69.8,88,29.72,10.0,Calm,Calm,-,N/A,,Mostly Cloudy,0,2013-06-29 06:55:00
2:15 AM,73.4,69.8,88,29.72,10.0,Calm,Calm,-,N/A,,Overcast,0,2013-06-29 07:15:00
2:35 AM,73.4,69.8,88,29.73,10.0,Calm,Calm,-,N/A,,Overcast,0,2013-06-29 07:35:00
2:55 AM,73.4,71.6,94,29.73,10.0,Calm,Calm,-,N/A,,Overcast,0,2013-06-29 07:55:00
3:15 AM,73.4,71.6,94,29.72,10.0,Calm,Calm,-,N/A,,Overcast,0,2013-06-29 08:15:00
3:35 AM,73.4,71.6,94,29.72,10.0,South,4.6,-,N/A,,Overcast,170,2013-06-29 08:35:00
3:55 AM,73.4,71.6,94,29.73,10.0,Calm,Calm,-,N/A,,Overcast,0,2013-06-29 08:55:00
4:15 AM,73.4,71.6,94,29.73,10.0,Calm,Calm,-,N/A,,Overcast,0,2013-06-29 09:15:00
4:35 AM,75.2,69.8,83,29.73,10.0,Calm,Calm,-,N/A,,Overcast,0,2013-06-29 09:35:00
4:55 AM,73.4,71.6,94,29.73,10.0,Calm,Calm,-,N/A,,Overcast,0,2013-06-29 09:55:00
5:15 AM,73.4,69.8,88,29.73,10.0,Calm,Calm,-,N/A,,Overcast,0,2013-06-29 10:15:00
5:35 AM,71.6,69.8,94,29.73,10.0,Calm,Calm,-,N/A,,Mostly Cloudy,0,2013-06-29 10:35:00
5:55 AM,71.6,69.8,94,29.73,10.0,Calm,Calm,-,N/A,,Scattered Clouds,0,2013-06-29 10:55:00
6:15 AM,71.6,69.8,94,29.73,10.0,Calm,Calm,-,N/A,,Clear,0,2013-06-29 11:15:00
6:35 AM,73.4,69.8,88,29.73,10.0,Calm,Calm,-,N/A,,Clear,0,2013-06-29 11:35:00
6:55 AM,73.4,68.0,83,29.73,10.0,Calm,Calm,-,N/A,,Clear,0,2013-06-29 11:55:00
7:15 AM,75.2,68.0,78,29.73,10.0,Calm,Calm,-,N/A,,Clear,0,2013-06-29 12:15:00
7:35 AM,75.2,69.8,83,29.73,10.0,Calm,Calm,-,N/A,,Clear,0,2013-06-29 12:35:00
7:55 AM,77.0,68.0,74,29.73,10.0,Calm,Calm,-,N/A,,Clear,0,2013-06-29 12:55:00
8:15 AM,77.0,68.0,74,29.73,10.0,Calm,Calm,-,N/A,,Clear,0,2013-06-29 13:15:00
8:35 AM,77.0,68.0,74,29.73,10.0,Calm,Calm,-,N/A,,Clear,0,2013-06-29 13:35:00
8:55 AM,78.8,68.0,69,29.74,10.0,WSW,4.6,-,N/A,,Clear,250,2013-06-29 13:55:00
9:15 AM,80.6,66.2,61,29.74,10.0,SW,3.5,-,N/A,,Clear,230,2013-06-29 14:15:00
9:35 AM,80.6,64.4,58,29.74,10.0,Calm,Calm,-,N/A,,Clear,0,2013-06-29 14:35:00
9:55 AM,82.4,64.4,54,29.73,10.0,WNW,3.5,-,N/A,,Clear,300,2013-06-29 14:55:00
10:15 AM,82.4,62.6,51,29.73,10.0,WSW,4.6,-,N/A,,Partly Cloudy,250,2013-06-29 15:15:00
10:35 AM,82.4,62.6,51,29.74,10.0,West,4.6,-,N/A,,Scattered Clouds,280,2013-06-29 15:35:00
10:55 AM,82.4,57.2,42,29.74,10.0,West,6.9,-,N/A,,Mostly Cloudy,280,2013-06-29 15:55:00
11:15 AM,84.2,59.0,42,29.74,10.0,West,5.8,-,N/A,,Scattered Clouds,280,2013-06-29 16:15:00
11:35 AM,84.2,57.2,40,29.74,10.0,West,4.6,-,N/A,,Scattered Clouds,280,2013-06-29 16:35:00
11:55 AM,82.4,59.0,45,29.74,10.0,West,6.9,-,N/A,,Mostly Cloudy,270,2013-06-29 16:55:00
12:15 PM,84.2,59.0,42,29.74,10.0,NW,4.6,-,N/A,,Partly Cloudy,320,2013-06-29 17:15:00
12:35 PM,84.2,59.0,42,29.74,10.0,West,6.9,-,N/A,,Scattered Clouds,280,2013-06-29 17:35:00
12:55 PM,84.2,60.8,45,29.73,10.0,West,8.1,-,N/A,,Mostly Cloudy,280,2013-06-29 17:55:00
1:15 PM,84.2,60.8,45,29.73,10.0,NNW,4.6,-,N/A,,Mostly Cloudy,340,2013-06-29 18:15:00
1:35 PM,84.2,57.2,40,29.73,10.0,West,8.1,17.3,N/A,,Scattered Clouds,280,2013-06-29 18:35:00
1:55 PM,84.2,57.2,40,29.72,10.0,NW,3.5,-,N/A,,Partly Cloudy,320,2013-06-29 18:55:00
2:15 PM,86.0,57.2,37,29.72,10.0,WSW,6.9,-,N/A,,Clear,250,2013-06-29 19:15:00
2:35 PM,86.0,57.2,37,29.72,10.0,West,9.2,-,N/A,,Partly Cloudy,270,2013-06-29 19:35:00
2:55 PM,86.0,57.2,37,29.72,10.0,West,6.9,16.1,N/A,,Clear,280,2013-06-29 19:55:00
3:15 PM,86.0,57.2,37,29.71,10.0,WNW,6.9,-,N/A,,Clear,290,2013-06-29 20:15:00
3:35 PM,84.2,59.0,42,29.71,10.0,NW,5.8,-,N/A,,Partly Cloudy,310,2013-06-29 20:35:00
3:55 PM,86.0,57.2,37,29.70,10.0,West,5.8,-,N/A,,Clear,280,2013-06-29 20:55:00
4:15 PM,86.0,59.0,40,29.70,10.0,West,6.9,-,N/A,,Partly Cloudy,280,2013-06-29 21:15:00
4:35 PM,86.0,57.2,37,29.69,10.0,WNW,4.6,-,N/A,,Clear,300,2013-06-29 21:35:00
4:55 PM,86.0,59.0,40,29.69,10.0,West,8.1,-,N/A,,Clear,270,2013-06-29 21:55:00
5:15 PM,84.2,59.0,42,29.68,10.0,WNW,3.5,-,N/A,,Clear,300,2013-06-29 22:15:00
5:35 PM,84.2,60.8,45,29.68,10.0,WNW,3.5,-,N/A,,Clear,300,2013-06-29 22:35:00
5:55 PM,84.2,62.6,48,29.68,10.0,West,5.8,-,N/A,,Clear,280,2013-06-29 22:55:00
6:15 PM,84.2,62.6,48,29.69,10.0,Calm,Calm,-,N/A,,Clear,0,2013-06-29 23:15:00
6:35 PM,84.2,62.6,48,29.69,10.0,West,3.5,-,N/A,,Clear,280,2013-06-29 23:35:00
6:55 PM,82.4,62.6,51,29.69,10.0,WNW,3.5,-,N/A,,Clear,290,2013-06-29 23:55:00
7:15 PM,82.4,66.2,58,29.68,10.0,Calm,Calm,-,N/A,,Clear,0,2013-06-30 00:15:00
7:35 PM,78.8,66.2,65,29.69,10.0,West,3.5,-,N/A,,Clear,260,2013-06-30 00:35:00
7:55 PM,75.2,66.2,73,29.69,10.0,Calm,Calm,-,N/A,,Clear,0,2013-06-30 00:55:00
8:15 PM,75.2,64.4,69,29.70,10.0,Calm,Calm,-,N/A,,Clear,0,2013-06-30 01:15:00
8:35 PM,75.2,64.4,69,29.71,10.0,Calm,Calm,-,N/A,,Scattered Clouds,0,2013-06-30 01:35:00
8:55 PM,75.2,64.4,69,29.71,10.0,Calm,Calm,-,N/A,,Mostly Cloudy,0,2013-06-30 01:55:00
9:15 PM,73.4,64.4,73,29.72,10.0,Calm,Calm,-,N/A,,Partly Cloudy,0,2013-06-30 02:15:00
9:35 PM,71.6,64.4,78,29.73,10.0,Calm,Calm,-,N/A,,Clear,0,2013-06-30 02:35:00
9:55 PM,71.6,66.2,83,29.73,8.0,Calm,Calm,-,N/A,,Partly Cloudy,0,2013-06-30 02:55:00
10:15 PM,71.6,64.4,78,29.74,10.0,Calm,Calm,-,N/A,,Partly Cloudy,0,2013-06-30 03:15:00
10:35 PM,69.8,64.4,83,29.74,10.0,Calm,Calm,-,N/A,,Clear,0,2013-06-30 03:35:00
10:55 PM,68.0,64.4,88,29.74,10.0,Calm,Calm,-,N/A,,Clear,0,2013-06-30 03:55:00
11:15 PM,68.0,64.4,88,29.74,10.0,Calm,Calm,-,N/A,,Clear,0,2013-06-30 04:15:00
11:35 PM,68.0,64.4,88,29.74,10.0,Calm,Calm,-,N/A,,Clear,0,2013-06-30 04:35:00
11:55 PM,68.0,64.4,88,29.74,10.0,Calm,Calm,-,N/A,,Clear,0,2013-06-30 04:55:00